sat.trackr.live / text

‹ back to catalog

STARLINK-37120

NORAD 68211 · 2026-053E

PAYLOAD ACTIVE UNKNOWN

§ Identity

Operator
Country
US
Launch date
2026-03-17
Launch site
AFWTR
Launch vehicle
Mass (kg)
RCS (m²)

Purposes: comms

External: N2YO · Heavens-Above · Gunter

§ Orbital elements

Epoch: 2026-05-25T03:38:21.956064Z

Period
93.91 min
Inclination
97.2867°
Eccentricity
0.0002170
Mean motion
15.33460981 rev/d
Perigee alt
464.0 km
Apogee alt
467.0 km
Semi-major
6,843.6 km
B*
4.6745e-4
RAAN
20.5644°
Arg perigee
89.5004°
Mean anomaly
270.6487°
Rev number
1,191

§ Raw data

STARLINK-371201 68211U 26053E   26145.15164301  .00015054  00000+0  46745-3 0  99962 68211  97.2867  20.5644 0002170  89.5004 270.6487 15.33460981 11912

JSON: /api/v1/satellites/68211 · /tle

For live sub-satellite position, see the globe view (requires WebGL).

§ Visibility from observer

Set your observer location to see the next 7 days of passes ≥ 10°. The values pass through the URL so the page stays shareable.

No JS? Fill the form by hand. The geolocation button needs JavaScript.